Terminal Aerodrome Forecast
Issued by NWS

Home | Current Version | Previous Version | Text Only | Print | Product List | Glossary On
Versions: 1 2 3 4 5 6 7 8 9 10 11 12 13 14 15
000
FTUS46 KMTR 242133 AAA
TAFSTS
TAF AMD
KSTS 242133Z 2422/2518 19006KT P6SM VCSH BKN010 BKN050 OVC070
     FM250200 21006KT P6SM VCSH FEW030 SCT070 BKN150
     FM250400 00000KT P6SM FEW020
     FM250800 00000KT P6SM SKC=

USA.gov is the U.S. government's official web portal to all federal, state and local government web resources and services.